When you browse on this site, cookies collect data to enhance your experience and personalize the content and advertising you see.
Visit our Privacy Policy to learn more. By continuing to use the site, you agree to this use of cookies and data.
  • In Austria
  • List of Countries
  • For 7 days
  • Water Temperature
  • Weather Map
  • News
  • Weather Widgets
  • user-avatar
    Login

    Hourly Weather Nashavar

    Today, 27 May, Wednesday

    Time Temperature Precipitation Wind Pressure Humidity
    00:00 +36°C° 0 mm 2 mps 724 mmHg 15%
    01:00 +35°C° 0 mm 2 mps 723 mmHg 17%
    02:00 +34°C° 0 mm 2 mps 723 mmHg 18%
    03:00 +34°C° 0 mm 2 mps 723 mmHg 20%
    04:00 +32°C° 0 mm 2 mps 722 mmHg 21%
    05:00 +31°C° 0 mm 1 mps 723 mmHg 23%
    06:00 +34°C° 0 mm 2 mps 723 mmHg 20%
    07:00 +36°C° 0 mm 2 mps 723 mmHg 18%
    08:00 +37°C° 0 mm 3 mps 724 mmHg 16%
    09:00 +39°C° 0 mm 3 mps 724 mmHg 15%
    10:00 +41°C° 0 mm 4 mps 724 mmHg 13%
    11:00 +43°C° 0 mm 5 mps 724 mmHg 11%
    12:00 +45°C° 0 mm 5 mps 723 mmHg 10%
    13:00 +46°C° 0 mm 5 mps 723 mmHg 9%
    14:00 +47°C° 0 mm 6 mps 722 mmHg 9%
    15:00 +46°C° 0 mm 6 mps 722 mmHg 10%
    16:00 +45°C° 0 mm 7 mps 722 mmHg 11%
    17:00 +44°C° 0 mm 7 mps 721 mmHg 12%
    18:00 +42°C° 0 mm 6 mps 721 mmHg 14%
    19:00 +41°C° 0 mm 5 mps 722 mmHg 15%
    20:00 +39°C° 0 mm 3 mps 722 mmHg 17%
    21:00 +38°C° 0 mm 3 mps 722 mmHg 17%
    22:00 +37°C° 0 mm 3 mps 722 mmHg 18%
    23:00 +36°C° 0 mm 3 mps 722 mmHg 19%

    Tomorrow, 28 May, Thursday

    Time Temperature Precipitation Wind Pressure Humidity
    00:00 +35°C° 0 mm 3 mps 722 mmHg 21%
    01:00 +34°C° 0 mm 2 mps 722 mmHg 23%
    02:00 +34°C° 0 mm 2 mps 721 mmHg 24%
    03:00 +32°C° 0 mm 2 mps 721 mmHg 25%
    04:00 +32°C° 0 mm 2 mps 721 mmHg 25%
    05:00 +31°C° 0 mm 2 mps 721 mmHg 26%
    06:00 +34°C° 0 mm 2 mps 722 mmHg 24%
    07:00 +35°C° 0 mm 2 mps 722 mmHg 22%
    08:00 +36°C° 0 mm 2 mps 722 mmHg 20%
    09:00 +38°C° 0 mm 2 mps 722 mmHg 18%
    10:00 +39°C° 0 mm 2 mps 722 mmHg 16%
    11:00 +42°C° 0 mm 3 mps 722 mmHg 14%
    12:00 +42°C° 0 mm 2 mps 722 mmHg 13%
    13:00 +43°C° 0 mm 2 mps 722 mmHg 12%
    14:00 +43°C° 0 mm 2 mps 721 mmHg 12%
    15:00 +44°C° 0 mm 3 mps 721 mmHg 12%
    16:00 +45°C° 0 mm 5 mps 721 mmHg 13%
    17:00 +44°C° 0 mm 7 mps 721 mmHg 13%
    18:00 +42°C° 0 mm 5 mps 721 mmHg 14%
    19:00 +41°C° 0 mm 4 mps 721 mmHg 15%
    20:00 +38°C° 0 mm 2 mps 722 mmHg 16%
    21:00 +37°C° 0 mm 2 mps 722 mmHg 19%
    22:00 +36°C° 0 mm 2 mps 722 mmHg 21%
    23:00 +34°C° 0 mm 1 mps 722 mmHg 24%

    Day after tomorrow, 29 May, Friday

    Time Temperature Precipitation Wind Pressure Humidity
    00:00 +35°C° 0.1 mm 2 mps 722 mmHg 25%
    01:00 +34°C° 0.1 mm 2 mps 722 mmHg 26%
    02:00 +34°C° 0.1 mm 2 mps 722 mmHg 28%
    03:00 +32°C° 0.1 mm 2 mps 722 mmHg 29%
    04:00 +31°C° 0.1 mm 2 mps 722 mmHg 30%
    05:00 +31°C° 0.1 mm 2 mps 722 mmHg 31%
    06:00 +32°C° 0.1 mm 1 mps 722 mmHg 29%
    07:00 +33°C° 0.1 mm 1 mps 723 mmHg 27%
    08:00 +34°C° 0.1 mm 1 mps 723 mmHg 25%
    09:00 +36°C° 0 mm 1 mps 723 mmHg 22%
    10:00 +38°C° 0 mm 2 mps 723 mmHg 20%
    11:00 +40°C° 0 mm 2 mps 723 mmHg 17%
    12:00 +40°C° 0 mm 3 mps 723 mmHg 17%
    13:00 +42°C° 0 mm 4 mps 723 mmHg 17%
    14:00 +42°C° 0 mm 5 mps 723 mmHg 17%
    15:00 +42°C° 0 mm 4 mps 723 mmHg 17%
    16:00 +42°C° 0 mm 4 mps 723 mmHg 17%
    17:00 +42°C° 0 mm 4 mps 723 mmHg 17%
    18:00 +40°C° 0 mm 4 mps 723 mmHg 20%
    19:00 +37°C° 0 mm 4 mps 724 mmHg 24%
    20:00 +36°C° 0 mm 4 mps 724 mmHg 28%
    21:00 +35°C° 0 mm 3 mps 724 mmHg 29%
    22:00 +35°C° 0 mm 3 mps 724 mmHg 30%
    23:00 +34°C° 0 mm 2 mps 725 mmHg 32%

    30 May, Saturday

    Time Temperature Precipitation Wind Pressure Humidity
    00:00 +32°C° 0 mm 2 mps 725 mmHg 33%
    01:00 +32°C° 0 mm 2 mps 725 mmHg 35%
    02:00 +31°C° 0 mm 2 mps 725 mmHg 37%
    03:00 +31°C° 0.1 mm 1 mps 725 mmHg 38%
    04:00 +30°C° 0.1 mm 1 mps 725 mmHg 40%
    05:00 +28°C° 0.1 mm 0 mps 725 mmHg 42%
    06:00 +30°C° 0.2 mm 1 mps 725 mmHg 41%
    07:00 +31°C° 0.2 mm 2 mps 726 mmHg 39%
    08:00 +31°C° 0.2 mm 2 mps 726 mmHg 37%
    09:00 +32°C° 0 mm 2 mps 726 mmHg 37%
    10:00 +32°C° 0 mm 2 mps 726 mmHg 37%
    11:00 +32°C° 0 mm 2 mps 727 mmHg 37%
    12:00 +34°C° 0 mm 2 mps 726 mmHg 36%
    13:00 +34°C° 0 mm 2 mps 726 mmHg 34%
    14:00 +35°C° 0 mm 2 mps 726 mmHg 33%
    15:00 +35°C° 0 mm 2 mps 726 mmHg 31%
    16:00 +36°C° 0 mm 2 mps 726 mmHg 30%
    17:00 +36°C° 0 mm 2 mps 726 mmHg 28%
    18:00 +35°C° 0 mm 2 mps 726 mmHg 32%
    19:00 +34°C° 0 mm 3 mps 727 mmHg 36%
    20:00 +33°C° 0 mm 3 mps 727 mmHg 40%
    21:00 +31°C° 0.1 mm 3 mps 727 mmHg 41%
    22:00 +31°C° 0.1 mm 2 mps 727 mmHg 43%
    23:00 +31°C° 0.1 mm 1 mps 728 mmHg 45%

    31 May, Sunday

    Time Temperature Precipitation Wind Pressure Humidity
    00:00 +30°C° 0 mm 1 mps 727 mmHg 47%
    01:00 +29°C° 0 mm 2 mps 727 mmHg 48%
    02:00 +29°C° 0 mm 2 mps 726 mmHg 50%
    03:00 +29°C° 0 mm 1 mps 726 mmHg 50%
    04:00 +29°C° 0 mm 1 mps 726 mmHg 51%
    05:00 +29°C° 0 mm 1 mps 726 mmHg 51%
    06:00 +29°C° 0.1 mm 1 mps 727 mmHg 49%
    07:00 +30°C° 0.1 mm 1 mps 727 mmHg 47%
    08:00 +31°C° 0.1 mm 2 mps 727 mmHg 45%
    09:00 +31°C° 0 mm 2 mps 727 mmHg 43%
    10:00 +32°C° 0 mm 2 mps 727 mmHg 42%
    11:00 +32°C° 0 mm 2 mps 728 mmHg 41%
    12:00 +34°C° 0 mm 2 mps 727 mmHg 38%
    13:00 +35°C° 0 mm 2 mps 727 mmHg 35%
    14:00 +36°C° 0 mm 3 mps 727 mmHg 32%
    15:00 +36°C° 0 mm 3 mps 727 mmHg 31%
    16:00 +37°C° 0 mm 4 mps 726 mmHg 30%
    17:00 +37°C° 0 mm 4 mps 726 mmHg 29%
    18:00 +36°C° 0.1 mm 4 mps 726 mmHg 33%
    19:00 +34°C° 0.1 mm 3 mps 726 mmHg 37%
    20:00 +32°C° 0.1 mm 2 mps 726 mmHg 40%
    21:00 +31°C° 0.4 mm 2 mps 727 mmHg 43%
    22:00 +31°C° 0.4 mm 1 mps 727 mmHg 46%
    23:00 +30°C° 0.4 mm 1 mps 727 mmHg 48%

    1 June, Monday

    Time Temperature Precipitation Wind Pressure Humidity
    00:00 +29°C° 0.6 mm 1 mps 727 mmHg 51%
    01:00 +29°C° 0.6 mm 1 mps 727 mmHg 54%
    02:00 +28°C° 0.6 mm 1 mps 726 mmHg 56%
    03:00 +28°C° 0.2 mm 1 mps 727 mmHg 57%
    04:00 +26°C° 0.2 mm 0 mps 727 mmHg 58%
    05:00 +26°C° 0.2 mm 0 mps 727 mmHg 59%
    06:00 +27°C° 0 mm 0 mps 727 mmHg 54%
    07:00 +28°C° 0 mm 0 mps 727 mmHg 49%
    08:00 +29°C° 0 mm 0 mps 727 mmHg 44%
    09:00 +32°C° 0 mm 1 mps 727 mmHg 41%
    10:00 +34°C° 0 mm 1 mps 727 mmHg 37%
    11:00 +35°C° 0 mm 1 mps 727 mmHg 33%
    12:00 +37°C° 0 mm 2 mps 727 mmHg 31%
    13:00 +38°C° 0 mm 2 mps 726 mmHg 29%
    14:00 +39°C° 0 mm 2 mps 726 mmHg 26%
    15:00 +39°C° 0 mm 2 mps 726 mmHg 26%
    16:00 +39°C° 0 mm 2 mps 725 mmHg 25%
    17:00 +39°C° 0 mm 2 mps 725 mmHg 24%
    18:00 +38°C° 0 mm 3 mps 725 mmHg 27%
    19:00 +37°C° 0 mm 3 mps 725 mmHg 30%
    20:00 +36°C° 0 mm 4 mps 725 mmHg 33%
    21:00 +34°C° 0.1 mm 3 mps 726 mmHg 37%
    22:00 +33°C° 0.1 mm 3 mps 726 mmHg 42%
    23:00 +31°C° 0.1 mm 2 mps 726 mmHg 46%
    Show more